Location: Newark
(46.7000°N, 60.6000°W)
Time: 20:18:17
(UTC+00:00)

Vanguard 1 - All Passes

Search period start: 28 October 2020 00:00
Search period end: 07 November 2020 00:00
Orbit: 649 x 3833 km, 34.3° (Epoch: 27 October)

Date Brightness Start Highest point End Pass type
(mag) Time Alt. Az. Time Alt. Az. Time Alt. Az.
28 Oct - 13:50:23 10° S 14:04:22 22° SE 14:19:12 10° E daylight
28 Oct - 16:06:45 10° SW 16:27:16 45° SSE 16:46:09 10° E daylight
28 Oct - 18:29:32 10° WSW 18:52:04 57° S 19:08:34 10° ESE daylight
28 Oct - 20:55:51 10° W 21:15:46 47° SSW 21:28:21 10° SE visible
28 Oct - 23:24:56 10° W 23:36:07 21° SW 23:44:03 10° S visible
29 Oct - 14:08:41 10° S 14:24:37 28° SE 14:41:43 10° E daylight
29 Oct - 16:26:57 10° SW 16:48:06 50° SSE 17:07:18 10° E daylight
29 Oct - 18:50:33 10° WSW 19:13:05 57° S 19:29:19 10° ESE daylight
29 Oct - 21:17:18 10° W 21:36:19 42° SSW 21:48:31 10° SE visible
29 Oct - 23:48:00 10° W 23:56:01 15° SW 00:02:17 10° SSW visible
30 Oct - 14:27:43 10° SSW 14:44:58 34° SE 15:03:38 10° E daylight
30 Oct - 16:47:24 10° SW 17:09:03 54° SSE 17:28:21 10° E daylight
30 Oct - 19:11:41 10° W 19:34:03 56° S 19:49:57 10° ESE daylight
30 Oct - 21:38:53 10° W 21:56:43 36° SW 22:08:27 10° SSE visible
31 Oct - 00:15:12 10° WSW 00:15:47 10° WSW 00:16:21 10° WSW visible
31 Oct - 12:34:28 10° SSE 12:43:56 15° SE 12:54:26 10° E daylight
31 Oct - 14:47:14 10° SSW 15:05:29 40° SSE 15:25:14 10° E daylight
31 Oct - 17:08:03 10° WSW 17:30:03 57° S 17:49:19 10° E daylight
31 Oct - 19:32:54 10° W 19:54:57 53° SSW 20:10:29 10° SE daylight
31 Oct - 22:00:41 10° W 22:16:57 30° SW 22:28:04 10° SSE visible
01 Nov - 12:51:30 10° S 13:03:54 21° SE 13:18:19 10° E daylight
01 Nov - 15:07:07 10° SW 15:26:07 45° SSE 15:46:37 10° E daylight
01 Nov - 17:28:52 10° WSW 17:51:06 58° S 18:10:12 10° ESE daylight
01 Nov - 19:54:12 10° W 20:15:43 49° SSW 20:30:51 10° SE daylight
01 Nov - 22:22:50 10° W 22:37:03 24° SW 22:47:15 10° S visible
02 Nov - 13:09:51 10° S 13:24:00 27° SE 13:40:59 10° E daylight
02 Nov - 15:27:18 10° SW 15:46:54 50° SSE 16:07:51 10° E daylight
02 Nov - 17:49:48 10° WSW 18:12:10 58° S 18:31:01 10° ESE daylight
02 Nov - 20:15:36 10° W 20:36:21 44° SSW 20:51:03 10° SE daylight
02 Nov - 22:45:36 10° W 22:56:59 19° SW 23:05:44 10° SSW visible
03 Nov - 13:28:55 10° SSW 13:44:14 33° SE 14:03:01 10° E daylight
03 Nov - 15:47:42 10° SW 16:07:47 54° SSE 16:29:00 10° E daylight
03 Nov - 18:10:51 10° W 18:33:12 57° S 18:51:43 10° ESE daylight
03 Nov - 20:37:07 10° W 20:56:50 39° SW 21:11:00 10° SSE daylight
03 Nov - 23:09:54 10° W 23:16:47 13° WSW 23:22:40 10° SW visible
04 Nov - 11:36:42 10° SSE 11:43:58 14° ESE 11:52:18 10° E daylight
04 Nov - 13:48:27 10° SSW 14:04:36 39° SE 14:24:43 10° E daylight
04 Nov - 16:08:18 10° WSW 16:28:46 57° S 16:50:03 10° E daylight
04 Nov - 18:31:58 10° W 18:54:09 55° SSW 19:12:18 10° SE daylight
04 Nov - 20:58:50 10° W 21:17:10 33° SW 21:30:38 10° SSE visible
05 Nov - 11:53:29 10° SSE 12:03:49 19° SE 12:16:38 10° E daylight
05 Nov - 14:08:20 10° SW 14:25:08 45° SSE 14:46:12 10° E daylight
05 Nov - 16:29:02 10° WSW 16:49:49 59° S 17:11:02 10° ESE daylight
05 Nov - 18:53:11 10° W 19:15:01 51° SSW 19:32:43 10° SE daylight
05 Nov - 21:20:52 10° W 21:37:20 27° SW 21:49:51 10° S visible
06 Nov - 12:11:49 10° S 12:23:47 25° SE 12:39:28 10° E daylight
06 Nov - 14:28:30 10° SW 14:45:49 49° SSE 15:07:32 10° E daylight
06 Nov - 16:49:54 10° WSW 17:10:54 59° S 17:31:56 10° ESE daylight
06 Nov - 19:14:29 10° W 19:35:45 46° SSW 19:52:56 10° SE daylight
06 Nov - 21:43:28 10° W 21:57:21 21° SW 22:08:25 10° S visible
